TimeCST,TemperatureF,Dew PointF,Humidity,Sea Level PressureIn,VisibilityMPH,Wind Direction,Wind SpeedMPH,Gust SpeedMPH,PrecipitationIn,Events,Conditions,WindDirDegrees,DateUTC
12:15 AM,55.4,42.8,63,29.87,10.0,Calm,Calm,-,N/A,,Clear,0,2012-12-08 06:15:00
12:35 AM,53.6,42.8,67,29.87,10.0,Calm,Calm,-,N/A,,Clear,0,2012-12-08 06:35:00
12:55 AM,53.6,42.8,67,29.87,10.0,NW,5.8,-,N/A,,Clear,320,2012-12-08 06:55:00
1:15 AM,51.8,42.8,71,29.87,10.0,NW,3.5,-,N/A,,Clear,310,2012-12-08 07:15:00
1:35 AM,53.6,42.8,67,29.87,10.0,Calm,Calm,-,N/A,,Clear,0,2012-12-08 07:35:00
1:55 AM,53.6,42.8,67,29.87,10.0,Calm,Calm,-,N/A,,Clear,0,2012-12-08 07:55:00
2:15 AM,51.8,42.8,71,29.87,10.0,North,3.5,-,N/A,,Clear,350,2012-12-08 08:15:00
2:35 AM,51.8,42.8,71,29.87,10.0,NNW,3.5,-,N/A,,Clear,330,2012-12-08 08:35:00
2:55 AM,51.8,42.8,71,29.87,10.0,Calm,Calm,-,N/A,,Clear,0,2012-12-08 08:55:00
3:15 AM,51.8,42.8,71,29.88,10.0,Calm,Calm,-,N/A,,Clear,0,2012-12-08 09:15:00
3:35 AM,50.0,42.8,76,29.88,10.0,NNW,3.5,-,N/A,,Clear,340,2012-12-08 09:35:00
4:15 AM,50.0,42.8,76,29.88,10.0,NNW,3.5,-,N/A,,Mostly Cloudy,340,2012-12-08 10:15:00
4:35 AM,50.0,42.8,76,29.88,10.0,NNW,3.5,-,N/A,,Overcast,340,2012-12-08 10:35:00
4:55 AM,50.0,42.8,76,29.89,10.0,Calm,Calm,-,N/A,,Overcast,0,2012-12-08 10:55:00
5:15 AM,50.0,42.8,76,29.89,10.0,Calm,Calm,-,N/A,,Overcast,0,2012-12-08 11:15:00
5:35 AM,51.8,42.8,71,29.89,10.0,Calm,Calm,-,N/A,,Overcast,0,2012-12-08 11:35:00
5:55 AM,50.0,42.8,76,29.89,10.0,Calm,Calm,-,N/A,,Overcast,0,2012-12-08 11:55:00
6:15 AM,51.8,42.8,71,29.89,10.0,Calm,Calm,-,N/A,,Overcast,0,2012-12-08 12:15:00
6:35 AM,51.8,42.8,71,29.90,10.0,Calm,Calm,-,N/A,,Overcast,0,2012-12-08 12:35:00
6:55 AM,51.8,42.8,71,29.91,10.0,Calm,Calm,-,N/A,,Overcast,0,2012-12-08 12:55:00
7:15 AM,51.8,42.8,71,29.91,10.0,Calm,Calm,-,N/A,,Overcast,0,2012-12-08 13:15:00
7:35 AM,51.8,42.8,71,29.92,10.0,Calm,Calm,-,N/A,,Overcast,0,2012-12-08 13:35:00
7:55 AM,51.8,42.8,71,29.92,10.0,Calm,Calm,-,N/A,,Overcast,0,2012-12-08 13:55:00
8:15 AM,51.8,42.8,71,29.92,10.0,Calm,Calm,-,N/A,,Overcast,0,2012-12-08 14:15:00
8:35 AM,51.8,42.8,71,29.93,10.0,Calm,Calm,-,N/A,,Overcast,0,2012-12-08 14:35:00
8:55 AM,51.8,42.8,71,29.93,10.0,Calm,Calm,-,N/A,,Overcast,0,2012-12-08 14:55:00
9:15 AM,51.8,42.8,71,29.93,10.0,Calm,Calm,-,N/A,,Overcast,0,2012-12-08 15:15:00
9:35 AM,53.6,42.8,67,29.94,10.0,Calm,Calm,-,N/A,,Overcast,0,2012-12-08 15:35:00
10:15 AM,55.4,46.4,72,29.94,10.0,East,4.6,-,N/A,,Overcast,100,2012-12-08 16:15:00
10:35 AM,55.4,46.4,72,29.93,10.0,ESE,3.5,-,N/A,,Overcast,120,2012-12-08 16:35:00
10:55 AM,59.0,46.4,63,29.93,10.0,East,4.6,-,N/A,,Overcast,100,2012-12-08 16:55:00
11:15 AM,59.0,46.4,63,29.92,10.0,ESE,3.5,-,N/A,,Overcast,120,2012-12-08 17:15:00
11:35 AM,59.0,46.4,63,29.91,10.0,SE,4.6,-,N/A,,Overcast,140,2012-12-08 17:35:00
12:15 PM,60.8,48.2,63,29.89,10.0,SE,4.6,-,N/A,,Overcast,140,2012-12-08 18:15:00
12:35 PM,62.6,50.0,63,29.88,10.0,SSE,4.6,-,N/A,,Overcast,160,2012-12-08 18:35:00
12:55 PM,64.4,51.8,64,29.86,10.0,SSE,4.6,-,N/A,,Overcast,160,2012-12-08 18:55:00
1:15 PM,68.0,53.6,60,29.85,10.0,South,6.9,-,N/A,,Scattered Clouds,170,2012-12-08 19:15:00
1:35 PM,69.8,53.6,56,29.84,10.0,South,4.6,-,N/A,,Clear,170,2012-12-08 19:35:00
2:15 PM,69.8,55.4,60,29.82,10.0,SSW,9.2,16.1,N/A,,Scattered Clouds,200,2012-12-08 20:15:00
2:35 PM,71.6,57.2,60,29.81,10.0,South,11.5,18.4,N/A,,Mostly Cloudy,170,2012-12-08 20:35:00
3:15 PM,73.4,55.4,53,29.80,10.0,South,12.7,19.6,N/A,,Clear,190,2012-12-08 21:15:00
3:35 PM,73.4,55.4,53,29.79,10.0,SSW,9.2,16.1,N/A,,Clear,210,2012-12-08 21:35:00
3:55 PM,75.2,53.6,47,29.79,10.0,SW,15.0,-,N/A,,Clear,220,2012-12-08 21:55:00
4:15 PM,73.4,53.6,50,29.79,10.0,SSW,9.2,-,N/A,,Clear,210,2012-12-08 22:15:00
4:35 PM,73.4,53.6,50,29.79,10.0,SSW,10.4,17.3,N/A,,Clear,210,2012-12-08 22:35:00
4:55 PM,73.4,53.6,50,29.80,10.0,SSW,10.4,-,N/A,,Clear,210,2012-12-08 22:55:00
5:15 PM,71.6,53.6,53,29.79,10.0,SW,6.9,-,N/A,,Clear,220,2012-12-08 23:15:00
5:35 PM,69.8,53.6,56,29.79,10.0,SSW,5.8,-,N/A,,Clear,200,2012-12-08 23:35:00
5:55 PM,68.0,53.6,60,29.79,10.0,South,4.6,-,N/A,,Clear,190,2012-12-08 23:55:00
6:15 PM,64.4,53.6,68,29.79,10.0,SSW,6.9,-,N/A,,Clear,200,2012-12-09 00:15:00
6:35 PM,64.4,51.8,64,29.80,10.0,South,8.1,-,N/A,,Clear,190,2012-12-09 00:35:00
6:55 PM,64.4,51.8,64,29.80,10.0,South,8.1,-,N/A,,Clear,180,2012-12-09 00:55:00
7:15 PM,64.4,53.6,68,29.80,10.0,South,8.1,-,N/A,,Clear,180,2012-12-09 01:15:00
7:35 PM,64.4,53.6,68,29.79,10.0,South,9.2,-,N/A,,Clear,180,2012-12-09 01:35:00
7:55 PM,62.6,55.4,77,29.80,10.0,South,9.2,-,N/A,,Clear,190,2012-12-09 01:55:00
8:35 PM,64.4,55.4,73,29.80,10.0,South,9.2,-,N/A,,Clear,190,2012-12-09 02:35:00
8:55 PM,64.4,55.4,73,29.80,10.0,South,9.2,-,N/A,,Clear,180,2012-12-09 02:55:00
9:15 PM,66.2,55.4,68,29.80,10.0,South,12.7,-,N/A,,Clear,190,2012-12-09 03:15:00
9:35 PM,68.0,55.4,64,29.80,10.0,SSW,13.8,-,N/A,,Clear,200,2012-12-09 03:35:00
9:55 PM,66.2,57.2,73,29.80,10.0,South,15.0,-,N/A,,Clear,190,2012-12-09 03:55:00
10:15 PM,66.2,57.2,73,29.81,10.0,SSW,12.7,-,N/A,,Clear,200,2012-12-09 04:15:00
10:35 PM,64.4,57.2,77,29.81,10.0,SSW,12.7,-,N/A,,Clear,200,2012-12-09 04:35:00
10:55 PM,64.4,57.2,77,29.81,10.0,SSW,13.8,-,N/A,,Clear,200,2012-12-09 04:55:00
11:15 PM,64.4,59.0,83,29.81,10.0,SSW,15.0,-,N/A,,Clear,200,2012-12-09 05:15:00
11:35 PM,64.4,59.0,83,29.81,10.0,SSW,13.8,20.7,N/A,,Clear,200,2012-12-09 05:35:00
11:55 PM,64.4,59.0,83,29.81,10.0,SSW,15.0,20.7,N/A,,Clear,210,2012-12-09 05:55:00